TimeCDT,TemperatureF,Dew PointF,Humidity,Sea Level PressureIn,VisibilityMPH,Wind Direction,Wind SpeedMPH,Gust SpeedMPH,PrecipitationIn,Events,Conditions,WindDirDegrees,DateUTC
12:52 AM,52.0,43.0,71,29.64,10.0,West,9.2,-,N/A,,Clear,270,2011-10-14 05:52:00
1:52 AM,50.0,43.0,77,29.64,10.0,West,9.2,-,N/A,,Clear,270,2011-10-14 06:52:00
2:52 AM,51.1,43.0,74,29.64,10.0,West,11.5,-,N/A,,Partly Cloudy,270,2011-10-14 07:52:00
3:52 AM,48.9,43.0,80,29.65,10.0,West,9.2,-,N/A,,Clear,280,2011-10-14 08:52:00
4:52 AM,48.9,42.1,77,29.65,10.0,West,9.2,-,N/A,,Clear,270,2011-10-14 09:52:00
5:52 AM,48.9,43.0,80,29.66,10.0,West,11.5,19.6,N/A,,Clear,280,2011-10-14 10:52:00
6:52 AM,48.0,42.1,80,29.67,10.0,West,13.8,-,N/A,,Clear,280,2011-10-14 11:52:00
7:52 AM,48.2,42.8,82,29.69,10.0,West,13.8,-,N/A,,Mostly Cloudy,280,2011-10-14 12:52:00
8:52 AM,50.0,43.0,77,29.72,10.0,WNW,10.4,-,N/A,,Clear,290,2011-10-14 13:52:00
9:52 AM,53.1,44.1,71,29.72,10.0,West,16.1,24.2,N/A,,Clear,280,2011-10-14 14:52:00
10:52 AM,57.2,44.6,63,29.72,10.0,West,17.3,-,N/A,,Clear,270,2011-10-14 15:52:00
11:52 AM,57.0,44.1,62,29.74,10.0,West,13.8,25.3,N/A,,Overcast,280,2011-10-14 16:52:00
12:52 PM,57.9,43.0,58,29.74,10.0,WNW,21.9,31.1,N/A,,Overcast,290,2011-10-14 17:52:00
1:52 PM,57.9,42.1,56,29.74,10.0,WNW,21.9,32.2,N/A,,Mostly Cloudy,290,2011-10-14 18:52:00
2:52 PM,59.0,42.1,53,29.74,10.0,WNW,21.9,29.9,N/A,,Mostly Cloudy,290,2011-10-14 19:52:00
3:52 PM,61.0,43.0,52,29.74,10.0,West,19.6,39.1,N/A,,Scattered Clouds,280,2011-10-14 20:52:00
4:52 PM,59.0,41.0,51,29.75,10.0,West,24.2,33.4,N/A,,Scattered Clouds,280,2011-10-14 21:52:00
5:52 PM,55.9,42.1,60,29.77,10.0,West,21.9,31.1,N/A,,Clear,280,2011-10-14 22:52:00
6:52 PM,55.0,42.1,62,29.78,10.0,West,15.0,24.2,N/A,,Partly Cloudy,270,2011-10-14 23:52:00
7:52 PM,54.0,41.0,62,29.80,10.0,West,15.0,-,N/A,,Clear,280,2011-10-15 00:52:00
8:52 PM,53.1,39.9,61,29.81,10.0,West,12.7,21.9,N/A,,Clear,280,2011-10-15 01:52:00
9:52 PM,52.0,39.9,63,29.82,10.0,West,12.7,-,N/A,,Clear,280,2011-10-15 02:52:00
10:52 PM,51.1,39.9,66,29.83,10.0,West,13.8,-,N/A,,Unknown,270,2011-10-15 03:52:00
11:52 PM,50.0,39.9,68,29.85,10.0,West,12.7,-,N/A,,Clear,280,2011-10-15 04:52:00